Location: Killarney Provincial Park Observatory
(46.0124°N, 81.4000°W)
Time: 00:05:28
(UTC-05:00)

Iridium 22 - Visible Passes

Search period start: 23 February 2017 00:00
Search period end: 05 March 2017 00:00
Orbit: 776 x 779 km, 86.4° (Epoch: 22 February)

Date Brightness Start Highest point End Pass type
(mag) Time Alt. Az. Time Alt. Az. Time Alt. Az.
25 Feb 8.5 22:25:22 10° NNW 22:25:25 10° NNW 22:25:25 10° NNW visible
26 Feb 8.1 21:51:39 10° N 21:52:15 13° N 21:52:15 13° N visible
27 Feb 7.8 21:18:09 10° N 21:19:07 15° N 21:19:07 15° N visible
28 Feb 7.6 20:44:55 10° NNE 20:46:00 15° NNE 20:46:00 15° NNE visible
28 Feb 8.2 22:25:43 10° NNW 22:26:30 14° NNW 22:26:30 14° NNW visible
01 Mar 7.6 20:12:03 10° NNE 20:12:54 13° NE 20:12:54 13° NE visible
01 Mar 7.7 21:51:50 10° N 21:53:24 20° NNW 21:53:24 20° NNW visible
02 Mar 7.2 21:18:12 10° N 21:20:20 25° N 21:20:20 25° N visible
03 Mar 6.9 20:44:49 10° N 20:47:18 26° NNE 20:47:18 26° NNE visible
03 Mar 8.1 22:26:12 10° NNW 22:27:47 17° NW 22:27:47 17° NW visible
04 Mar 6.9 20:11:41 10° NNE 20:14:17 22° NE 20:14:17 22° NE visible
04 Mar 7.4 21:52:07 10° NNW 21:54:47 27° NW 21:54:47 27° NW visible
